Location: Bas Lanzent
(48.1360°N, 3.5871°W)
Time: 18:27:58
(UTC+00:00)

Cosmos 2360 Rocket - Pass Details

Date: 18 February 2020
Orbit: 836 x 843 km, 71.0° (Epoch: 29 March)

Event Time Altitude Azimuth Distance (km) Brightness Sun altitude
Exits shadow 04:10:57 13° 348° (NNW) 2,255 4.5 -31.4°
Drops below altitude 10° 04:12:11 10° 0° (N) 2,466 4.8 -31.2°
Sets 04:15:47 0° 23° (NNE) 3,402 5.9 -30.6°
